STARLINK-33943, 63884

Orbit data source: Space-Track

STARLINK-33943, 63884 is a payload satellite owned by SpaceX/Seattle (US) in LEO that was launched on Sat, 10 May 2025 UTC via an FALCON 9 launch vehicle from the Air Force Western Test Range (AFWTR). Payload-class satellites include a variety of spacecraft equipped with specific instruments for various scientific and technological missions. These include communications satellites like Starlink; space stations such as the ISS; scientific satellites like the Hubble; Earth observation satellites from companies like Planet Labs, Umbra, and HawkEye 360; GPS; miniature CubeSats for education and research; and military/defense satellites.

Loading next visibility...
Identifier
63884, 2025-094W
Orbit
LEO
Country
Flag of USUS
Related business
Manufacturer
SpaceX/Seattle
Mission
Operational Commercial Communications
Bus & Motor
STARLINK V2MO, Unknown motor
Mass
575 kg wet, ~530 kg dry
Launch date (UTC)
2025-05-10 (1 year ago)
Launch vehicle
FALCON 9
Launch site
Air Force Western Test Range (AFWTR)
Object type
Payload
Rocket body
Debris
Shape & HBR
Box + 2 Pan, 17.7 m
Radar Cross Section
36.964 m², Large (>1 m²)

Expand to show TLE details & history
Last TLE update: 15 hours ago

TLE from 15 hours ago
0 STARLINK-33943
1 63884U 25094W   26171.20650977 -.00001260  00000-0 -97848-4 0  9993
2 63884  70.0026 335.7975 0003281 258.4644 101.6147 14.98315515 62563
Epoch: 2026-06-20T04:57Z
TLE epoch observation values (Epoch: 2026-06-20T04:57:22.444Z)
Latitude
0.00002°
Longitude
-6.97047°
Altitude
574.985 km
Speed
7.573 km/s
True Right ascension
22h 23m 11s
True Declination
0° 00' 00"
Sunlit
Object was in daylight at epoch
Visualization orbit readout
Latitude
Unknown
Longitude
Unknown
Altitude
Unknown
Speed
Unknown
Apparent Right ascension
Unknown
Apparent Declination
Unknown
Sunlit
N/A
Visualization observer readout
Local Sidereal Time
07:17:49
Azimuth
Unknown
Elevation
Unknown
Doppler factor
Unknown
Orbital elements
Apogee altitude
572.328 km
Perigee altitude
567.769 km
Semi-major axis
6,948.186 km
Eccentricity
0.00033
Inclination
70.0026°
RAAN
335.7975°
Arg. of periapsis
258.4644°
True anomaly
101.65152°
Mean anomaly
101.6147°
Eccentric anomaly
101.63311°
Mean motion
3.74745 °/min
Orbital period
96.07 mins
BSTAR
-0.000097848
Loading maneuver chart data...
Computing Atmospheric mass density...
Loading historical data...
Loading historical data...
Loading historical data...
Loading historical data...
Loading historical data...
Loading historical data...
Loading historical data...

Documentation

Showing up to 5 results
|